#timestamp,LO_Frequency,Hit,StdDev 
1512640815.6,286047005.8,N
1512640835.4,286047012.2,N
1512640855.3,286047010.2,N
1512640875.1,286047006.5,N
1512640895.8,286047007.3,N
1512640915.7,286047006.6,N
1512640935.5,286047006.9,N
1512640955.3,286047005.8,N
1512640975.2,286047005.2,N
1512640995.9,286047004.9,N
1512641015.7,286047003.4,N
1512641035.6,286047002.2,N
1512641055.4,286047000.2,N
1512641075.2,286047001.0,N
1512641095.1,286046996.8,N
1512641096.0,286046996.8,N
1512641115.8,286046995.8,N
1512641135.6,286046997.4,N
1512641155.5,286046997.9,N
1512641175.3,286046993.5,N
1512641195.1,286046994.0,N
1512641215.8,286046996.4,N
1512641235.7,286046995.1,N
1512641255.5,286046995.8,N
1512641275.3,286046996.1,N
1512641295.2,286046995.8,N
1512641315.9,286046994.1,N
1512641335.7,286046994.5,N
1512641355.6,286046991.8,N
1512641375.4,286046993.0,N
1512641395.2,286046993.5,N
1512641415.1,286046996.1,N
1512641416.0,286046996.1,N
1512641435.8,286046999.6,N
1512641455.6,286047004.0,N
1512641475.5,286047003.3,N
1512641495.7,286047005.4,N
1512641515.5,286047005.1,N
1512641535.4,286047005.9,N
1512641555.2,286047000.3,N
1512641575.0,286047000.1,N
1512641575.9,286047000.1,N
1512641595.8,286046999.8,N
1512641615.6,286047000.3,N
1512641635.4,286046998.5,N
1512641655.3,286046999.5,N
1512641675.1,286047001.2,N
1512641695.8,286047001.2,N
1512641715.7,286047001.7,N
1512641735.5,286047001.0,N
1512641755.3,286047000.7,N
1512641775.2,286046999.1,N
1512641795.9,286046998.1,N
1512641815.7,286047004.0,N
1512641835.6,286047001.6,N
1512641855.4,286047001.3,N
1512641875.2,286047003.9,N
1512641895.0,286047002.2,N
1512641895.9,286047002.2,N
1512641915.8,286047004.3,N
1512641935.6,286047005.3,N
1512641955.5,286047011.0,Y
1512641975.3,286047009.8,P
1512641995.1,286047013.3,P
1512642015.8,286047015.2,P
1512642035.7,286047014.8,N
1512642055.5,286047015.1,N
1512642075.3,286047009.4,N
1512642095.2,286047007.0,N
1512642115.9,286047004.6,N
1512642135.7,286047007.0,N
1512642155.6,286047005.2,N
1512642175.4,286047007.1,N
1512642195.2,286047005.3,N
1512642215.1,286047004.5,N
1512642216.0,286047004.5,N
1512642235.8,286047004.5,N
1512642255.6,286047008.4,N
1512642275.5,286047009.1,N
1512642295.3,286047007.3,N
1512642315.1,286047008.4,N
1512642335.8,286047009.3,N
1512642355.7,286047011.6,Y
1512642375.5,286047007.2,P
1512642395.3,286047006.5,P
1512642415.2,286047007.4,P
1512642435.0,286047006.4,Y
1512642435.9,286047006.4,P
1512642455.8,286046998.5,P
1512642475.6,286047000.6,N
1512642495.4,286047004.8,N
1512642515.2,286047009.0,N
1512642535.1,286047016.7,Y
1512642536.0,286047016.7,P
1512642555.8,286047016.4,N
1512642575.7,286047013.3,N
1512642595.5,286047018.8,Y
1512642615.3,286047005.1,P
1512642635.2,286047007.1,N
1512642655.9,286047006.1,N
1512642675.7,286047001.7,N
1512642695.5,286047002.8,N
1512642715.4,286047000.8,N
1512642735.2,286047006.0,N
1512642755.0,286047002.1,N
1512642755.9,286047002.1,N
1512642775.8,286047001.0,N
1512642795.6,286046995.6,N
1512642815.4,286046994.6,N
1512642835.3,286046990.8,N
1512642855.1,286046992.0,N
1512642856.0,286046992.0,N
1512642875.8,286046992.2,N
1512642895.7,286046991.7,N
1512642915.5,286046991.4,N
1512642935.3,286046989.5,N
1512642955.1,286046985.7,N
1512642975.9,286046988.5,N
1512642995.7,286046991.3,N
1512643015.5,286046990.6,N
1512643035.4,286046991.0,N
1512643055.2,286046991.4,N
1512643075.0,286046987.3,N
1512643075.9,286046987.3,N
1512643095.8,286046989.6,N
1512643115.6,286046989.5,N
1512643135.4,286046987.6,N
1512643155.3,286046983.9,N
1512643175.1,286046983.3,N
1512643176.0,286046983.3,N
1512643195.8,286046984.4,N
1512643215.7,286046984.8,N
1512643235.5,286046983.5,N
1512643255.3,286046975.8,Y
1512643275.2,286046986.5,P
1512643295.9,286046985.7,P
1512643315.7,286046985.2,P
1512643335.6,286046983.0,Y
1512643355.4,286046997.6,P
1512643375.2,286046999.2,N
1512643395.1,286046998.0,N
1512643396.0,286046998.0,N
1512643415.8,286046997.1,N
1512643435.6,286047000.9,N
1512643455.4,286046996.7,N
1512643475.3,286046998.2,N
1512643495.1,286046999.4,N
1512643515.8,286046999.9,N
1512643535.7,286047000.8,N
1512643555.5,286046998.1,N
1512643575.3,286047001.3,N
1512643595.2,286047004.0,N
1512643615.9,286047001.3,N
1512643635.7,286047005.5,N
1512643655.6,286047001.6,N
1512643675.4,286047002.2,N
1512643695.2,286046999.2,N
1512643715.0,286046998.4,N
1512643716.0,286046998.4,N
1512643735.8,286047001.7,N
1512643755.6,286047003.0,N
1512643775.4,286047001.4,N
1512643795.3,286047001.7,N
1512643815.1,286047002.3,N
1512643835.8,286047002.4,N
1512643855.7,286047006.0,N
1512643875.5,286047001.7,N
1512643895.3,286047004.4,N
1512643915.2,286047001.4,N
1512643935.9,286047001.0,N
1512643955.7,286046998.3,N
1512643975.6,286046998.3,N
1512643995.4,286047000.5,N
1512644015.2,286047002.1,N
1512644035.0,286047002.8,N
1512644036.0,286047002.8,N
1512644055.8,286047003.1,N
1512644075.6,286047005.0,N
1512644095.4,286047005.3,N
1512644115.3,286047004.2,N
1512644135.1,286047003.8,N
1512644155.8,286047002.8,N
1512644175.7,286046998.9,N
1512644195.5,286046995.0,N
1512644215.3,286046995.1,N
1512644235.2,286046995.1,N
1512644255.9,286046995.3,N
1512644275.7,286046994.9,N
1512644295.6,286046994.6,N
1512644315.4,286046994.8,N
1512644335.2,286046992.5,N
1512644355.1,286046991.9,N
1512644356.0,286046991.9,N
1512644375.8,286046995.9,N
1512644395.6,286046993.4,N
